Binghamton, NY

7:33 PM EDT on June 24, 2019 (GMT -0400)
Binghamton Regional-Link

Weather History for KBGM - May, 2019

Change the Weather History Date:

Friday, May 24, 2019

  Actual Average Record
Temperature  
Mean Temperature 57 °F 58 °F  
Max Temperature 63 °F 68 °F 87 °F (1975)
Min Temperature 50 °F 49 °F 28 °F (1963)
Degree Days  
Heating Degree Days 8 8  
Month to date heating degree days 258 259  
Since 1 July heating degree days 7048 7058  
Cooling Degree Days 0 1  
Month to date cooling degree days 4 12  
Year to date cooling degree days 4 16  
Growing Degree Days 8 (Base 50)    
Moisture  
Dew Point 47 °F    
Average Humidity 72    
Maximum Humidity 83    
Minimum Humidity 60    
Precipitation  
Precipitation 0.00 in 0.13 in 1.38 in (2003)
Month to date precipitation 4.19 2.72  
Year to date precipitation 15.67 13.90  
Snow  
Snow 0.00 in 0.00 in T in (2013)
Month to date snowfall 0.0 0.1  
Since 1 July snowfall 81.4 83.4  
Snow Depth 0.00 in    
Sea Level Pressure  
Sea Level Pressure 30.03 in    
Wind  
Wind Speed 11 mph (NNW)    
Max Wind Speed 20 mph    
Max Gust Speed 29 mph    
Visibility 10 miles    
Events      
T = Trace of Precipitation, MM = Missing Value Source: NWS Daily Summary

Daily Weather History Graph

Daily Weather History Graph

Search for Another Location

Airport or City:

Astronomy

May. 24, 2019 Rise Set
Actual Time 5:35 AM EDT 8:26 PM EDT
Civil Twilight 5:02 AM EDT 8:59 PM EDT
Nautical Twilight 4:20 AM EDT 9:41 PM EDT
Astronomical Twilight 3:32 AM EDT 10:30 PM EDT
Moon 12:49 AM EDT 10:34 AM EDT
Length of Visible Light 15h 57m
Length of Day
14h 51m
Waning Gibbous, 69% of the Moon is Illuminated
May 24
Waning Gibbous
May 26
Last Quarter
Jun 3
New
Jun 10
First Quarter
Jun 17
Full

Hourly Weather History & Observations

Time (EDT) Temp. Dew Point Humidity Pressure Visibility Wind Dir Wind Speed Gust Speed Precip Events Conditions
12:53 AM 60.1 °F 52.0 °F 75% 29.87 in 10.0 mi NNW 13.8 mph 23.0 mph N/A   Mostly Cloudy
1:53 AM 57.9 °F 46.9 °F 67% 29.88 in 10.0 mi NNW 11.5 mph 23.0 mph N/A   Mostly Cloudy
2:53 AM 57.0 °F 45.0 °F 64% 29.87 in 10.0 mi NW 13.8 mph 19.6 mph N/A   Overcast
3:53 AM 55.0 °F 46.0 °F 72% 29.87 in 10.0 mi WNW 11.5 mph - N/A   Clear
4:53 AM 54.0 °F 45.0 °F 72% 29.88 in 10.0 mi NW 12.7 mph 20.7 mph N/A   Partly Cloudy
5:53 AM 54.0 °F 45.0 °F 72% 29.90 in 10.0 mi WNW 12.7 mph - N/A   Mostly Cloudy
6:04 AM 54.0 °F 45.0 °F 72% 29.91 in 10.0 mi WNW 11.5 mph - N/A   Mostly Cloudy
6:53 AM 54.0 °F 46.0 °F 75% 29.93 in 10.0 mi WNW 11.5 mph 18.4 mph N/A   Overcast
7:53 AM 54.0 °F 46.0 °F 75% 29.95 in 10.0 mi NW 12.7 mph 26.5 mph N/A   Overcast
8:53 AM 54.0 °F 46.9 °F 77% 29.96 in 10.0 mi NW 13.8 mph 24.2 mph N/A   Overcast
9:53 AM 54.0 °F 48.0 °F 80% 29.98 in 10.0 mi WNW 9.2 mph - N/A   Overcast
10:53 AM 55.0 °F 48.9 °F 80% 30.00 in 10.0 mi NNW 15.0 mph 25.3 mph N/A   Overcast
11:10 AM 55.0 °F 48.9 °F 80% 30.01 in 10.0 mi NNW 15.0 mph - N/A   Overcast
11:53 AM 55.0 °F 48.9 °F 80% 30.03 in 10.0 mi NW 10.4 mph - N/A   Overcast
12:46 PM 55.0 °F 48.9 °F 80% 30.05 in 10.0 mi NW 15.0 mph 21.9 mph N/A   Overcast
12:53 PM 55.0 °F 48.9 °F 80% 30.05 in 10.0 mi NW 13.8 mph 21.9 mph N/A   Overcast
1:53 PM 55.9 °F 48.0 °F 75% 30.07 in 10.0 mi NNW 15.0 mph 21.9 mph N/A   Overcast
2:53 PM 59.0 °F 48.0 °F 67% 30.08 in 10.0 mi NNW 13.8 mph 23.0 mph N/A   Overcast
3:13 PM 59.0 °F 48.0 °F 67% 30.08 in 10.0 mi NNW 17.3 mph 24.2 mph N/A   Overcast
3:53 PM 62.1 °F 48.9 °F 62% 30.08 in 10.0 mi NW 18.4 mph 24.2 mph N/A   Mostly Cloudy
4:12 PM 60.1 °F 48.9 °F 67% 30.09 in 10.0 mi NW 13.8 mph 24.2 mph N/A   Scattered Clouds
4:53 PM 60.1 °F 48.0 °F 64% 30.10 in 10.0 mi NNW 15.0 mph 24.2 mph N/A   Mostly Cloudy
5:08 PM 60.1 °F 48.9 °F 67% 30.11 in 10.0 mi North 13.8 mph - N/A   Mostly Cloudy
5:39 PM 59.0 °F 48.0 °F 67% 30.11 in 10.0 mi North 15.0 mph - N/A   Mostly Cloudy
5:53 PM 60.1 °F 48.0 °F 64% 30.12 in 10.0 mi North 13.8 mph 21.9 mph N/A   Scattered Clouds
6:15 PM 59.0 °F 48.0 °F 67% 30.13 in 10.0 mi North 12.7 mph - N/A   Mostly Cloudy
6:53 PM 57.0 °F 48.0 °F 72% 30.14 in 10.0 mi North 8.1 mph - N/A   Overcast
7:53 PM 55.9 °F 46.0 °F 69% 30.15 in 10.0 mi North 10.4 mph - N/A   Mostly Cloudy
8:02 PM 55.0 °F 46.0 °F 72% 30.14 in 10.0 mi NNE 8.1 mph - N/A   Scattered Clouds
8:53 PM 53.1 °F 46.0 °F 77% 30.16 in 10.0 mi NNE 4.6 mph - N/A   Clear
9:53 PM 52.0 °F 45.0 °F 77% 30.16 in 10.0 mi NNE 4.6 mph - N/A   Clear
10:53 PM 52.0 °F 45.0 °F 77% 30.16 in 10.0 mi ENE 4.6 mph - N/A   Clear
11:53 PM 52.0 °F 45.0 °F 77% 30.18 in 10.0 mi Calm Calm - N/A   Clear